Location: Campbell River
(50.0170°N, 125.2500°W)
Time: 23:17:06
(UTC-07:00)

Daily predictions for brighter satellites

Satellite Brightness Start Highest point End
(mag) Time Altitude Azimuth Time Altitude Azimuth Time Altitude Azimuth
Cosmos 1707 2.9 19:49:07 10° N 19:53:00 55° ENE 19:56:52 10° SSE
Cosmos 332 Rocket 3.8 19:48:51 10° S 19:53:41 63° ESE 19:58:30 10° NNE
Envisat 4.0 19:51:04 10° ESE 19:55:20 28° ENE 19:59:36 10° N
Cosmos 371 Rocket 3.4 19:54:42 10° S 19:59:29 60° ESE 20:04:20 10° NNE
COSMOS 2406 4.5 19:58:38 10° SE 20:02:25 18° E 20:06:13 10° ENE
Cosmos 1825 Rocket 3.9 19:58:27 10° NNW 20:02:52 74° W 20:07:17 10° S
FengYun 1-2 T 4.2 19:59:06 10° SSE 20:04:42 78° ENE 20:10:17 10° NNW
Cosmos 1340 Rocket 3.0 20:03:12 10° NNW 20:07:16 78° W 20:11:21 10° S
Meteor 1-15 Rocket 4.4 20:01:56 10° SSW 20:07:50 87° WNW 20:13:41 10° NNE
Cosmos 2369 Rocket 3.8 20:02:56 10° NW 20:08:05 37° WSW 20:13:12 10° S
Cosmos 1656 Rocket 3.7 20:03:49 10° NNW 20:09:31 72° ENE 20:15:07 10° SE
Cosmos 2298 Rocket 4.3 20:04:57 10° NNW 20:10:19 76° WSW 20:15:38 10° SSE
FENGYUN 3A 4.2 20:05:52 10° S 20:11:10 65° WSW 20:16:32 10° NNW
Cosmos 1937 Rocket 3.8 20:08:07 10° NNW 20:13:27 73° WSW 20:18:42 10° SSE
EP 1 4.1 20:11:31 10° SW 20:14:06 82° SE 20:16:49 10° NE
SL-16 R/B 4.5 20:10:22 10° W 20:14:53 24° NW 20:19:25 10° NNE
Cosmos 1271 Rocket 2.8 20:12:13 10° SSW 20:15:58 79° W 20:19:51 10° N
Cosmos 468 Rocket 4.0 20:10:57 10° SSW 20:16:08 77° ESE 20:21:27 10° NNE
Cosmos 841 Rocket 3.9 20:12:38 10° S 20:17:19 37° ESE 20:22:02 10° NE
Meteor 2-13 Rocket 4.4 20:14:11 10° S 20:20:12 65° E 20:26:13 10° NNE
Cosmos 1674 4.4 20:18:25 10° NNE 20:20:49 16° ENE 20:21:54 15° E
HJ-1C 3.3 20:17:52 10° SSE 20:21:12 89° S 20:24:36 10° NNW
Cosmos 1356 Rocket 3.5 20:18:13 10° N 20:22:29 64° ENE 20:26:46 10° SSE
Cosmos 1378 3.3 20:19:08 10° NNW 20:22:56 77° W 20:26:42 10° S
ATLAS 2AS CENTAUR R/B 3.9 20:15:41 10° NW 20:23:14 39° NNE 20:29:43 13° E
COSMO-SKYMED 1 4.3 20:21:08 10° N 20:25:09 37° WNW 20:29:08 10° SW
Cosmos 2181 Rocket 4.3 20:19:02 10° NNW 20:25:15 72° W 20:31:22 10° S
In-Cosmos 22 4.3 20:24:26 10° N 20:30:02 59° ENE 20:35:41 10° SSE
YAOGAN 6 3.9 20:30:23 19° E 20:31:33 22° ENE 20:34:23 10° NNE
NOSS 3-1 (A) 4.1 20:25:29 10° NW 20:32:55 89° NE 20:41:02 11° SE
CZ-2D R/B 3.1 20:29:11 10° SSE 20:32:59 75° ENE 20:36:49 10° N
Cosmos 1943 3.9 20:29:53 10° SW 20:35:30 59° NW 20:41:10 10° NNE
Helios 1A 4.4 20:34:14 18° E 20:35:39 21° ENE 20:38:50 10° NNE
Cosmos 1544 3.7 20:33:40 10° SSE 20:36:56 33° E 20:40:13 10° NNE
Thor Agena Rocket 3.9 20:32:12 10° NNE 20:37:29 70° WNW 20:42:39 10° SSW
Cosmos 1763 Rocket 3.4 20:34:04 10° SSW 20:39:09 71° ESE 20:44:20 10° NNE
SJ-6B 3.8 20:37:47 10° S 20:41:42 51° W 20:45:34 10° NNW
Cosmos 1953 3.9 20:43:48 18° ENE 20:43:48 18° ENE 20:46:03 10° NE
NOSS 3-1 (C) 4.3 20:35:46 10° NW 20:43:08 70° SW 20:51:24 10° SSE
Cosmos 2154 Rocket 4.4 20:37:37 10° SSE 20:43:17 39° E 20:49:01 10° NNE
Resurs 1-3 3.5 20:39:55 10° SSE 20:44:17 76° ENE 20:48:42 10° N
SL-08 ROCKET BODY 4.4 20:38:33 10° S 20:44:26 87° W 20:50:27 10° N
Cosmos 540 Rocket 4.0 20:40:47 10° SSE 20:45:19 33° ESE 20:49:53 10° NE
Cosmos 1726 Rocket 4.2 20:41:51 10° SSW 20:46:09 58° WNW 20:50:27 10° N
OPS 8737 4.3 20:44:54 10° SW 20:48:26 70° SE 20:51:29 12° NE
Cosmos 2074 Rocket 3.9 20:43:02 10° S 20:49:13 75° E 20:55:26 10° NNE
Cosmos 304 Rocket 3.7 20:45:19 10° S 20:50:02 61° ESE 20:54:47 10° NNE
Meteor 1-24 Rocket 3.9 20:45:08 10° NNW 20:51:11 84° W 20:57:04 10° S
USA 186 1.0 20:54:25 40° S 20:55:10 86° WSW 20:57:35 10° NNW
Elektron 1 3.9 20:52:09 10° NW 20:55:56 73° SW 20:57:04 34° SSE
Resurs 01 Rocket 1.8 20:56:33 10° S 21:00:58 71° WSW 21:05:24 10° NNW
Spot 2 Rocket 3.5 20:56:50 10° SSE 21:01:53 83° WSW 21:06:58 10° NNW
GEOS 3 Rocket 4.3 20:57:24 10° ENE 21:02:15 33° ESE 21:07:03 10° S
USA 267 3.9 20:58:36 13° ENE 21:04:09 49° N 21:10:23 10° WNW
GP-B 3.0 21:00:34 10° N 21:05:01 71° E 21:08:59 13° S
Cosmos 1356 3.3 21:03:42 10° N 21:07:13 74° ENE 21:08:14 43° SSE
Cosmos 2322 Rocket 4.4 21:05:23 10° N 21:07:29 12° NNE 21:09:35 10° NE
Cosmos 1076 Rocket 4.2 21:04:12 10° N 21:08:14 35° ENE 21:08:40 34° E
Nadezhda 3 Rocket 3.9 21:05:12 10° N 21:11:35 77° E 21:16:51 15° SSE
SJ-11-01 4.2 21:11:06 25° SSE 21:13:49 78° ENE 21:18:34 10° NNW
Cosmos 2084 3.0 21:11:40 10° SW 21:15:40 78° SE 21:17:37 28° NE
Terra 4.0 21:16:00 11° NE 21:16:00 11° NE 21:17:18 10° NE
Cosmos 1125 Rocket 3.7 21:14:58 10° NNW 21:20:15 70° WSW 21:23:46 21° S
Cosmos 1980 Rocket 3.6 21:16:50 10° NNW 21:21:19 23° NE 21:22:52 21° ENE
Cosmos 1697 Rocket 3.6 21:16:27 10° NNW 21:21:33 33° NE 21:23:01 28° ENE
FALCON 9 R/B 3.9 21:19:31 10° SSW 21:22:28 18° SSE 21:22:28 18° SSE
Cosmos 1812 Rocket 3.4 21:18:48 10° S 21:23:15 81° E 21:27:45 10° NNE
Cosmos 2184 Rocket 4.4 21:17:29 10° SSW 21:23:46 68° WNW 21:30:09 10° N
Cosmos 1758 3.3 21:24:36 58° E 21:24:37 58° E 21:28:34 10° NNE
Cosmos 1766 3.9 21:22:02 10° SSW 21:25:55 56° WNW 21:29:47 10° N
Cosmos 1939 Rocket 3.1 21:30:10 34° S 21:31:40 63° WSW 21:35:35 10° NNW
ERS-1 Rocket 3.2 21:31:33 46° E 21:32:20 50° ENE 21:37:11 10° N
H-2A R/B 2.9 21:32:29 30° ENE 21:32:30 30° ENE 21:36:51 10° N
SPOT 5 3.8 21:34:27 27° NE 21:34:27 27° NE 21:37:40 10° N
Envisat 3.8 21:29:12 10° S 21:34:07 50° W 21:39:04 10° NNW
Cosmos 1656 4.0 21:29:44 10° NNW 21:35:18 50° NE 21:36:31 43° E
Okean 3 Rocket 3.5 21:30:51 10° N 21:35:23 76° E 21:36:03 61° SE
Meteor 1-21 Rocket 4.2 21:35:53 10° NNW 21:41:44 86° W 21:44:19 35° S
SL-16 R/B 4.1 21:40:01 10° N 21:43:37 17° NNE 21:45:11 15° NE
COSMOS 2406 3.2 21:40:16 10° SSW 21:45:59 84° WNW 21:51:47 10° NNE
Cosmos 1727 Rocket 4.3 21:40:20 10° N 21:46:20 44° ENE 21:47:02 43° E
Cosmos 1766 Rocket 4.0 21:42:44 10° N 21:46:18 47° NE 21:46:18 47° NE
Cosmos 1295 Rocket 4.3 21:44:29 33° S 21:47:17 70° E 21:53:20 10° NNE
SL-8 Rocket 4.0 21:51:48 53° SE 21:52:38 57° E 21:58:40 10° NNE
NOAA 11 4.1 21:51:58 52° SSE 21:53:24 90° ENE 21:58:53 10° NNW
Cosmos 1674 3.4 21:53:06 10° NNW 21:56:44 47° W 21:56:48 47° W
Meteor 2-15 Rocket 4.3 21:51:21 10° N 21:57:28 72° ENE 21:58:34 58° SE
Cosmos 2369 3.6 21:54:44 10° NNW 22:00:26 87° ENE 22:01:14 67° SE
ARGOS 3.0 22:01:35 69° ESE 22:01:58 72° ENE 22:07:23 10° NNW
YAOGAN 6 4.1 22:04:50 32° W 22:04:56 32° W 22:08:14 10° NNW
Spot 1 4.2 22:05:50 68° W 22:05:50 68° W 22:09:47 10° NNW
Cosmos 1809 Rocket 4.3 22:06:41 53° S 22:08:14 81° E 22:14:23 10° NNE
MetOp-A 4.0 22:09:01 73° S 22:09:33 86° WSW 22:14:58 10° NNW
Helios 1A 3.7 22:10:53 48° WSW 22:10:56 48° W 22:15:01 10° NNW
ATLAS 2AS CENTAUR R/B 2.9 22:07:09 10° NW 22:15:19 85° NE 22:17:09 58° SE
Helios 1B rocket 3.9 22:14:42 10° NNE 22:16:52 30° N 22:16:52 30° N
Cosmos 1470 4.5 22:21:10 29° N 22:21:10 29° N 22:23:14 10° N
Cosmos 1953 3.4 22:19:29 43° WNW 22:19:29 43° WNW 22:23:11 10° N
Cosmos 864 Rocket 4.4 22:22:41 67° ENE 22:22:41 67° ENE 22:28:40 10° NNE
Meteor 2-16 Rocket 4.4 22:23:01 64° ENE 22:23:01 64° ENE 22:28:30 10° NNE
Cosmos 1339 Rocket 4.4 22:18:47 10° N 22:25:13 81° E 22:25:36 77° SE
NOSS 3-4 (A) 4.4 22:20:21 10° NW 22:26:47 43° NNE 22:28:17 38° ENE
NOSS 3-4 (C) 4.4 22:20:27 10° NW 22:26:53 43° NNE 22:28:23 38° ENE
Meteor 2-14 Rocket 4.3 22:34:37 84° SW 22:34:48 87° W 22:41:00 10° N
Meteor 2-21 Rocket 4.4 22:35:13 77° SW 22:35:38 83° W 22:41:50 10° N
Cosmos 2278 4.1 22:30:39 10° NW 22:36:11 55° WSW 22:36:15 55° WSW
H-2A R/B 4.4 22:39:15 16° NNE 22:39:15 16° NNE 22:40:37 10° N
Cosmos 2082 Rocket 4.2 22:41:46 16° NE 22:41:46 16° NE 22:42:53 10° NE
SPOT 1/Viking Rocket 4.0 22:39:02 58° N 22:39:02 58° N 22:43:11 10° NNW
GEOS 3 Rocket 4.0 22:35:12 10° NE 22:40:32 64° NW 22:45:52 10° WSW
Cosmos 1818 4.0 22:36:11 10° NW 22:40:44 55° N 22:40:44 55° N
USA 267 3.4 22:45:56 60° NE 22:46:41 65° NNE 22:53:10 10° WNW
Terra 3.3 22:54:53 32° N 22:54:53 32° N 22:57:28 10° N
Cosmos 2322 Rocket 3.4 22:48:13 10° NNW 22:52:22 33° NNE 22:52:22 33° NNE
Cosmos 2360 Rocket 3.9 22:59:31 10° NNW 23:03:24 22° NNE 23:03:24 22° NNE
BREEZE-M DEB (TANK) 3.9 22:53:17 10° WNW 23:04:25 59° WSW 23:04:25 59° WSW
Cosmos 1697 Rocket 3.4 23:00:16 10° NW 23:04:45 48° WNW 23:04:45 48° WNW
Cosmos 1980 Rocket 2.8 23:00:23 10° NNW 23:04:37 52° NNW 23:04:37 52° NNW
Cosmos 2285 Rocket 4.3 23:07:07 64° WNW 23:07:23 65° WNW 23:13:49 10° NNE
Cosmos 2366 rocket 4.4 23:07:51 58° W 23:08:07 59° WNW 23:14:22 10° N
H-2A R/B 3.3 23:13:07 36° WNW 23:13:07 36° WNW 23:16:36 10° NNW
SL-16 R/B 3.4 23:23:24 10° NNW 23:27:02 38° N 23:27:02 38° N
